Miscellaneous Local Product
Issued by NWS Hastings, NE

Home | Current Version | Previous Version | Graphics & Text | Print | Product List | Glossary On
Versions: 1 2 3 4 5 6 7 8 9 10 11 12 13 14 15 16 17 18 19 20 21 22 23 24 25 26 27 28 29 30 31 32 33 34 35 36 37 38 39 40 41 42 43 44 45 46 47 48 49 50
000
AXUS43 KGID 080602
MISGRI

GID CWA HOURLY WEATHER ROUNDUP
NATIONAL WEATHER SERVICE HASTINGS NE
100 AM CDT WED JUL 08 2015

NOTE: "FAIR" INDICATES FEW OR NO CLOUDS BELOW 12,000 FEET WITH NO
SIGNIFICANT WEATHER AND/OR OBSTRUCTIONS TO VISIBILITY.

...SOUTH CENTRAL NEBRASKA...

CITY           SKY/WX    TMP DP  RH WIND       PRES   REMARKS
GRAND ISLAND   CLEAR     56  51  84 E5        30.11F
HASTINGS       PTCLDY    58  49  72 SE5       30.10F
KEARNEY        PTCLDY    57  52  82 SE3       30.11S
ORD            PTCLDY    53  49  86 CALM      30.10S
YORK           PTCLDY    55  55 100 CALM      30.11S
AURORA         CLEAR     55  53  93 E3        30.10F
LEXINGTON      PTCLDY    60  55  83 SE5       30.11S
HOLDREGE       PTCLDY    55  51  86 SE3       30.10F
HEBRON         CLEAR     55  52  89 CALM      30.09F

...NEBRASKA PANHANDLE...

CITY           SKY/WX    TMP DP  RH WIND       PRES   REMARKS
CHADRON        MOCLDY    65  50  58 S14       30.02F
ALLIANCE       CLOUDY    63  52  67 S10       30.07F
SCOTTSBLUFF    CLOUDY    63  51  65 E8        30.07F
SIDNEY         MOCLDY    60  49  66 SE9       30.10F

...WESTERN AND NORTH CENTRAL NEBRASKA...

CITY           SKY/WX    TMP DP  RH WIND       PRES   REMARKS
VALENTINE      MOCLDY    62  53  72 S13       30.06F
AINSWORTH      PTCLDY    58  52  80 S9        30.09F
ONEILL         CLEAR     57  51  79 SE5       30.11S
BROKEN BOW     MOCLDY    57  53  86 E3        30.10F
IMPERIAL       CLOUDY    64  49  57 SE10      30.09F
NORTH PLATTE   CLOUDY    63  54  72 SE5       30.09F
MCCOOK         MOCLDY    61  51  70 E12       30.08F

...EASTERN NEBRASKA...

CITY           SKY/WX    TMP DP  RH WIND       PRES   REMARKS
NORFOLK        CLEAR     54  52  93 CALM      30.10F
SO SIOUX CITY  CLEAR     54  50  86 CALM      30.11S
TEKAMAH        PTCLDY    55  52  89 CALM      30.10S
ALBION         CLEAR     51  48  90 CALM      30.11S
OMAHA EPPLEY   CLEAR     60  54  80 CALM      30.09F
OFFUTT AFB     CLEAR     57  53  86 NE5       30.08F
MILLARD        CLEAR     58  55  89 CALM      30.09S
LINCOLN        CLEAR     59  53  80 CALM      30.10S
NEBRASKA CITY  PTCLDY    58  50  75 CALM      30.09S
BEATRICE       CLEAR     58  53  83 NE5       30.09S
FALLS CITY     CLOUDY    62  58  86 CALM      30.07F

...NORTHERN KANSAS...

CITY           SKY/WX    TMP DP  RH WIND       PRES   REMARKS
GOODLAND       MOCLDY    61  46  57 SE9       30.10F
HILL CITY      MOCLDY    59  49  69 E5        30.09F
NORTON         PTCLDY    57  46  67 E3        30.09F
PHILLIPSBURG   CLEAR     61  50  67 NE3       30.09F
SMITH CENTER   CLEAR     55  48  76 NE8       30.10S
HAYS           CLEAR     57  45  62 CALM      30.09S
RUSSELL        CLEAR     57  50  77 SE7       30.08S
CONCORDIA      CLEAR     59  52  77 CALM      30.08F
SALINA         PTCLDY    63  54  72 CALM      30.07F
TOPEKA         CLOUDY    66  62  87 CALM      30.06F



USA.gov is the U.S. government's official web portal to all federal, state and local government web resources and services.